AG4MR Weather Reports


time (UTC)temp
F
wind
direction
speed
knots
gust
knots
rain 1hr
in
rain 24hr
in
rain mn
in
humidity
%
barometer
mb
20260505011512 65 96 0.0 0.0 0.00 0.00 0.00 65 1013.2
20260505010011 66 96 0.0 0.0 0.00 0.00 0.00 60 1013.2
20260505004515 68 96 0.0 0.9 0.00 0.00 0.00 59 1013.1
20260505003010 69 96 0.0 0.0 0.00 0.00 0.00 54 1012.9
20260505001510 71 96 0.0 0.0 0.00 0.00 0.00 50 1012.8
20260505000008 73 96 0.0 3.5 0.00 0.00 0.00 46 1012.9
20260504234510 74 153 0.0 0.0 0.00 0.00 0.00 44 1013.0
20260504233006 74 153 0.0 1.7 0.00 0.00 0.00 42 1013.1
20260504231505 75 296 0.0 6.1 0.00 0.00 0.00 40 1013.1
20260504230005 75 236 0.0 4.3 0.00 0.00 0.00 42 1013.2
20260504224503 76 74 0.0 1.7 0.00 0.00 0.00 45 1013.3
20260504223002 76 171 0.9 7.0 0.00 0.00 0.00 43 1013.4
20260504221501 77 246 0.9 6.1 0.00 0.00 0.00 40 1013.4
20260504220106 77 165 0.0 4.3 0.00 0.00 0.00 41 1013.5
20260504214600 77 62 0.9 5.2 0.00 0.00 0.00 40 1013.6
20260504213110 78 276 0.9 6.1 0.00 0.00 0.00 40 1013.6
20260504211556 78 249 0.9 4.3 0.00 0.00 0.00 40 1013.6
20260504210054 77 267 0.9 2.6 0.00 0.00 0.00 39 1013.6
20260504204601 77 148 1.7 5.2 0.00 0.00 0.00 39 1013.8
20260504203050 77 57 0.9 2.6 0.00 0.00 0.00 33 1014.0
20260504201548 77 257 0.0 4.3 0.00 0.00 0.00 39 1014.2
20260504200045 77 206 2.6 6.1 0.00 0.00 0.00 39 1014.4
20260504194542 77 234 0.0 5.2 0.00 0.00 0.00 40 1014.6
20260504193054 76 124 2.6 6.1 0.00 0.00 0.00 43 1014.7
20260504191538 77 75 0.0 8.7 0.00 0.00 0.00 42 1015.0
20260504190040 76 222 0.9 7.8 0.00 0.00 0.00 44 1015.2
20260504184533 76 184 0.9 5.2 0.00 0.00 0.00 47 1015.4
20260504183034 76 178 2.6 7.0 0.00 0.00 0.00 47 1015.6
20260504181534 75 360 0.9 4.3 0.00 0.00 0.00 46 1015.7
20260504180024 76 140 0.9 6.1 0.00 0.00 0.00 46 1015.9
20260504174523 76 213 0.9 4.3 0.00 0.00 0.00 48 1016.0
20260504173020 75 306 0.0 6.1 0.00 0.00 0.00 50 1016.3
20260504171517 75 148 2.6 7.0 0.00 0.00 0.00 48 1016.6
20260504081553 46 211 0.0 0.0 0.00 0.00 0.00 91 1017.4
20260504050024 49 211 0.0 0.0 0.00 0.00 0.00 87 1018.4
20260504044533 49 211 0.0 0.0 0.00 0.00 0.00 87 1018.5
20260504043034 49 211 0.0 0.0 0.00 0.00 0.00 85 1018.6
20260504041523 49 211 0.0 0.0 0.00 0.00 0.00 83 1018.6
20260504040024 50 211 0.0 0.0 0.00 0.00 0.00 83 1018.8
20260504034522 50 211 0.0 0.0 0.00 0.00 0.00 82 1018.8
20260504033021 51 211 0.0 0.0 0.00 0.00 0.00 80 1018.8
20260504031522 52 211 0.0 0.0 0.00 0.00 0.00 78 1018.8
20260504030021 52 211 0.0 0.0 0.00 0.00 0.00 77 1018.7
20260504024518 53 211 0.0 0.0 0.00 0.00 0.00 76 1018.5
20260504023017 53 211 0.0 0.0 0.00 0.00 0.00 76 1018.4
20260504021518 53 211 0.0 0.0 0.00 0.00 0.00 74 1018.3
20260504020017 54 211 0.0 0.0 0.00 0.00 0.00 72 1018.2
20260504014515 55 211 0.0 0.0 0.00 0.00 0.00 70 1018.1
20260504013019 55 211 0.0 0.0 0.00 0.00 0.00 69 1017.9